Location: Pompeys Pillar
(45.9913°N, 107.9528°W)
Time: 05:31:57
(UTC+00:00)

Tiros 1 - Pass Details

Date: 05 June 2022
Orbit: 629 x 663 km, 48.4° (Epoch: 30 June)

Event Time Altitude Azimuth Distance (km) Brightness Sun altitude
Rises 08:11:01 0° 286° (WNW) 2,917 10.5 -20.1°
Reaches altitude 10° 08:13:20 10° 287° (WNW) 2,010 9.7 -20.0°
Maximum altitude 08:17:58 82° 16° (NNE) 643 7.1 -19.8°
Drops below altitude 10° 08:22:37 10° 104° (ESE) 2,020 9.7 -19.5°
Sets 08:24:57 0° 105° (ESE) 2,932 10.6 -19.4°
